Time,TemperatureF,DewpointF,PressureIn,WindDirection,WindDirectionDegrees,WindSpeedMPH,WindSpeedGustMPH,Humidity,HourlyPrecipIn,Conditions,Clouds,dailyrainin,SolarRadiationWatts/m^2,SoftwareType,DateUTC
2013-01-30 00:03:00,48.6,41.4,30.30,NNW,344,0.0,11.0,76,0.00,,,0.00,0,WeatherTracker,2013-01-30 08:03:00,
2013-01-30 00:08:00,48.8,41.2,30.31,North,355,1.0,11.0,75,0.00,,,0.00,0,WeatherTracker,2013-01-30 08:08:00,
2013-01-30 00:13:00,49.2,41.6,30.30,NNW,342,0.0,11.0,75,0.00,,,0.00,0,WeatherTracker,2013-01-30 08:13:00,
2013-01-30 00:18:00,49.4,41.5,30.30,NNW,348,0.0,11.0,74,0.00,,,0.00,0,WeatherTracker,2013-01-30 08:18:00,
2013-01-30 00:23:00,49.5,41.6,30.30,NW,322,9.0,11.0,74,0.00,,,0.00,0,WeatherTracker,2013-01-30 08:23:00,
2013-01-30 00:28:00,49.7,41.4,30.30,NNW,338,4.0,10.0,73,0.00,,,0.00,0,WeatherTracker,2013-01-30 08:28:00,
2013-01-30 00:33:00,50.0,41.7,30.30,NNW,338,8.0,11.0,73,0.00,,,0.00,0,WeatherTracker,2013-01-30 08:33:00,
2013-01-30 00:38:00,50.4,41.7,30.30,NW,322,9.0,14.0,72,0.00,,,0.00,0,WeatherTracker,2013-01-30 08:38:00,
2013-01-30 00:43:00,50.7,41.6,30.30,NNW,327,13.0,14.0,71,0.00,,,0.00,0,WeatherTracker,2013-01-30 08:43:00,
2013-01-30 00:48:00,50.8,41.7,30.30,NNW,329,1.0,15.0,71,0.00,,,0.00,0,WeatherTracker,2013-01-30 08:48:00,
2013-01-30 00:53:00,50.9,41.5,30.30,NW,312,8.0,15.0,70,0.00,,,0.00,0,WeatherTracker,2013-01-30 08:53:00,
2013-01-30 00:58:00,50.9,41.5,30.29,NW,323,6.0,15.0,70,0.00,,,0.00,0,WeatherTracker,2013-01-30 08:58:00,
2013-01-30 01:03:00,50.9,41.5,30.30,NW,311,6.0,13.0,70,0.00,,,0.00,0,WeatherTracker,2013-01-30 09:03:00,
2013-01-30 01:09:00,50.9,41.1,30.30,NNW,340,7.0,13.0,69,0.00,,,0.00,0,WeatherTracker,2013-01-30 09:09:00,
2013-01-30 01:14:00,50.9,41.5,30.30,North,351,7.0,12.0,70,0.00,,,0.00,0,WeatherTracker,2013-01-30 09:14:00,
2013-01-30 01:19:00,50.7,41.3,30.29,NNW,331,9.0,12.0,70,0.00,,,0.00,0,WeatherTracker,2013-01-30 09:19:00,
2013-01-30 01:24:00,50.6,41.2,30.29,NW,325,6.0,12.0,70,0.00,,,0.00,0,WeatherTracker,2013-01-30 09:24:00,
2013-01-30 01:29:00,50.5,41.1,30.30,NW,310,0.0,11.0,70,0.00,,,0.00,0,WeatherTracker,2013-01-30 09:29:00,
2013-01-30 01:34:00,50.3,40.9,30.30,North,355,6.0,10.0,70,0.00,,,0.00,0,WeatherTracker,2013-01-30 09:34:00,
2013-01-30 01:39:00,50.2,41.2,30.30,NNW,346,0.0,10.0,71,0.00,,,0.00,0,WeatherTracker,2013-01-30 09:39:00,
2013-01-30 01:44:00,50.1,41.1,30.30,NNW,344,0.0,10.0,71,0.00,,,0.00,0,WeatherTracker,2013-01-30 09:44:00,
2013-01-30 01:49:00,49.9,40.9,30.30,NNW,348,0.0,9.0,71,0.00,,,0.00,0,WeatherTracker,2013-01-30 09:49:00,
2013-01-30 01:54:00,49.6,40.9,30.30,North,350,0.0,2.0,72,0.00,,,0.00,0,WeatherTracker,2013-01-30 09:54:00,
2013-01-30 01:59:00,48.8,40.2,30.30,North,350,0.0,1.0,72,0.00,,,0.00,0,WeatherTracker,2013-01-30 09:59:00,
2013-01-30 02:04:00,47.9,40.0,30.30,NW,311,0.0,0.0,74,0.00,,,0.00,0,WeatherTracker,2013-01-30 10:04:00,
2013-01-30 02:09:00,47.3,40.1,30.30,NW,304,0.0,1.0,76,0.00,,,0.00,0,WeatherTracker,2013-01-30 10:09:00,
2013-01-30 02:14:00,46.9,40.1,30.30,NW,304,0.0,1.0,77,0.00,,,0.00,0,WeatherTracker,2013-01-30 10:14:00,
2013-01-30 02:19:00,46.7,39.9,30.30,NW,304,0.0,1.0,77,0.00,,,0.00,0,WeatherTracker,2013-01-30 10:19:00,
2013-01-30 02:24:00,46.4,39.9,30.30,WNW,292,0.0,1.0,78,0.00,,,0.00,0,WeatherTracker,2013-01-30 10:24:00,
2013-01-30 02:29:00,46.3,39.8,30.30,WNW,292,0.0,1.0,78,0.00,,,0.00,0,WeatherTracker,2013-01-30 10:29:00,
2013-01-30 02:34:00,46.1,40.0,30.30,WNW,292,0.0,1.0,79,0.00,,,0.00,0,WeatherTracker,2013-01-30 10:34:00,
2013-01-30 02:39:00,45.9,39.8,30.30,NW,325,0.0,0.0,79,0.00,,,0.00,0,WeatherTracker,2013-01-30 10:39:00,
2013-01-30 02:44:00,45.7,39.6,30.30,NW,319,0.0,1.0,79,0.00,,,0.00,0,WeatherTracker,2013-01-30 10:44:00,
2013-01-30 02:49:00,45.6,39.8,30.30,NW,317,1.0,1.0,80,0.00,,,0.00,0,WeatherTracker,2013-01-30 10:49:00,
2013-01-30 02:54:00,46.1,40.0,30.30,NNW,340,7.0,9.0,79,0.00,,,0.00,0,WeatherTracker,2013-01-30 10:54:00,
2013-01-30 02:59:00,46.9,40.4,30.30,NNW,342,0.0,11.0,78,0.00,,,0.00,0,WeatherTracker,2013-01-30 10:59:00,
2013-01-30 03:04:00,47.7,40.5,30.30,NNW,336,5.0,11.0,76,0.00,,,0.00,0,WeatherTracker,2013-01-30 11:04:00,
2013-01-30 03:10:00,48.1,40.6,30.30,NNW,333,9.0,10.0,75,0.00,,,0.00,0,WeatherTracker,2013-01-30 11:10:00,
2013-01-30 03:15:00,48.4,40.8,30.30,NNW,344,4.0,10.0,75,0.00,,,0.00,0,WeatherTracker,2013-01-30 11:15:00,
2013-01-30 03:20:00,48.5,40.6,30.29,NNW,329,1.0,9.0,74,0.00,,,0.00,0,WeatherTracker,2013-01-30 11:20:00,
2013-01-30 03:25:00,48.6,40.7,30.30,NW,325,1.0,7.0,74,0.00,,,0.00,0,WeatherTracker,2013-01-30 11:25:00,
2013-01-30 03:30:00,48.6,40.7,30.29,NW,316,0.0,1.0,74,0.00,,,0.00,0,WeatherTracker,2013-01-30 11:30:00,
2013-01-30 03:35:00,48.6,40.7,30.29,NW,315,1.0,2.0,74,0.00,,,0.00,0,WeatherTracker,2013-01-30 11:35:00,
2013-01-30 03:40:00,48.7,40.8,30.29,NW,315,0.0,2.0,74,0.00,,,0.00,0,WeatherTracker,2013-01-30 11:40:00,
2013-01-30 03:45:00,48.8,40.5,30.29,WNW,301,1.0,2.0,73,0.00,,,0.00,0,WeatherTracker,2013-01-30 11:45:00,
2013-01-30 03:50:00,48.9,40.6,30.29,NW,304,0.0,11.0,73,0.00,,,0.00,0,WeatherTracker,2013-01-30 11:50:00,
2013-01-30 03:55:00,49.0,40.7,30.29,NW,321,1.0,11.0,73,0.00,,,0.00,0,WeatherTracker,2013-01-30 11:55:00,
2013-01-30 04:00:00,49.1,40.5,30.29,WNW,286,1.0,9.0,72,0.00,,,0.00,0,WeatherTracker,2013-01-30 12:00:00,
2013-01-30 04:05:00,49.1,40.5,30.29,NNW,331,0.0,9.0,72,0.00,,,0.00,0,WeatherTracker,2013-01-30 12:05:00,
2013-01-30 04:11:00,49.1,40.5,30.29,NNW,338,0.0,8.0,72,0.00,,,0.00,0,WeatherTracker,2013-01-30 12:11:00,
2013-01-30 04:16:00,49.0,40.4,30.29,NW,321,1.0,2.0,72,0.00,,,0.00,0,WeatherTracker,2013-01-30 12:16:00,
2013-01-30 04:21:00,48.9,40.6,30.28,NNW,342,1.0,2.0,73,0.00,,,0.00,0,WeatherTracker,2013-01-30 12:21:00,
2013-01-30 04:26:00,48.9,40.3,30.28,NW,326,0.0,7.0,72,0.00,,,0.00,0,WeatherTracker,2013-01-30 12:26:00,
2013-01-30 04:31:00,48.9,40.3,30.28,NNW,339,10.0,12.0,72,0.00,,,0.00,0,WeatherTracker,2013-01-30 12:31:00,
2013-01-30 04:36:00,49.1,40.1,30.28,NW,323,0.0,12.0,71,0.00,,,0.00,0,WeatherTracker,2013-01-30 12:36:00,
2013-01-30 04:41:00,49.3,40.3,30.28,NNW,338,8.0,12.0,71,0.00,,,0.00,0,WeatherTracker,2013-01-30 12:41:00,
2013-01-30 04:46:00,49.5,40.1,30.28,NNW,347,3.0,13.0,70,0.00,,,0.00,0,WeatherTracker,2013-01-30 12:46:00,
2013-01-30 04:51:00,49.6,40.2,30.28,North,350,4.0,13.0,70,0.00,,,0.00,0,WeatherTracker,2013-01-30 12:51:00,
2013-01-30 04:56:00,49.4,40.4,30.29,NNW,348,1.0,12.0,71,0.00,,,0.00,0,WeatherTracker,2013-01-30 12:56:00,
2013-01-30 05:01:00,49.2,40.6,30.29,North,9,1.0,10.0,72,0.00,,,0.00,0,WeatherTracker,2013-01-30 13:01:00,
2013-01-30 05:06:00,48.9,40.3,30.29,North,355,0.0,8.0,72,0.00,,,0.00,0,WeatherTracker,2013-01-30 13:06:00,
2013-01-30 05:11:00,48.5,40.2,30.29,North,355,0.0,2.0,73,0.00,,,0.00,0,WeatherTracker,2013-01-30 13:11:00,
2013-01-30 05:16:00,48.1,40.2,30.29,North,355,0.0,2.0,74,0.00,,,0.00,0,WeatherTracker,2013-01-30 13:16:00,
2013-01-30 05:21:00,47.8,39.9,30.29,North,10,0.0,2.0,74,0.00,,,0.00,0,WeatherTracker,2013-01-30 13:21:00,
2013-01-30 05:26:00,47.4,39.9,30.29,North,9,0.0,1.0,75,0.00,,,0.00,0,WeatherTracker,2013-01-30 13:26:00,
2013-01-30 05:31:00,47.1,39.9,30.29,North,355,0.0,1.0,76,0.00,,,0.00,0,WeatherTracker,2013-01-30 13:31:00,
2013-01-30 05:36:00,46.8,39.6,30.29,North,355,0.0,1.0,76,0.00,,,0.00,0,WeatherTracker,2013-01-30 13:36:00,
2013-01-30 05:41:00,46.5,39.7,30.30,North,355,0.0,1.0,77,0.00,,,0.00,0,WeatherTracker,2013-01-30 13:41:00,
2013-01-30 05:46:00,46.2,39.4,30.30,North,355,0.0,0.0,77,0.00,,,0.00,0,WeatherTracker,2013-01-30 13:46:00,
2013-01-30 05:51:00,45.9,39.4,30.30,North,360,0.0,0.0,78,0.00,,,0.00,0,WeatherTracker,2013-01-30 13:51:00,
2013-01-30 05:56:00,45.6,39.1,30.30,NE,36,0.0,0.0,78,0.00,,,0.00,0,WeatherTracker,2013-01-30 13:56:00,
2013-01-30 06:01:00,45.3,39.2,30.30,NE,36,0.0,0.0,79,0.00,,,0.00,0,WeatherTracker,2013-01-30 14:01:00,
2013-01-30 06:07:00,45.2,39.1,30.30,NE,35,0.0,0.0,79,0.00,,,0.00,0,WeatherTracker,2013-01-30 14:07:00,
2013-01-30 06:12:00,45.3,39.2,30.31,NE,35,0.0,1.0,79,0.00,,,0.00,0,WeatherTracker,2013-01-30 14:12:00,
2013-01-30 06:17:00,45.5,39.4,30.31,NE,35,0.0,1.0,79,0.00,,,0.00,0,WeatherTracker,2013-01-30 14:17:00,
2013-01-30 06:22:00,45.4,39.3,30.31,NE,35,0.0,0.0,79,0.00,,,0.00,0,WeatherTracker,2013-01-30 14:22:00,
2013-01-30 06:27:00,45.3,39.2,30.31,NE,36,0.0,0.0,79,0.00,,,0.00,0,WeatherTracker,2013-01-30 14:27:00,
2013-01-30 06:32:00,45.2,39.1,30.31,NE,36,0.0,0.0,79,0.00,,,0.00,0,WeatherTracker,2013-01-30 14:32:00,
2013-01-30 06:37:00,45.1,39.0,30.31,NE,36,0.0,0.0,79,0.00,,,0.00,0,WeatherTracker,2013-01-30 14:37:00,
2013-01-30 06:42:00,44.8,39.0,30.31,NE,36,0.0,0.0,80,0.00,,,0.00,0,WeatherTracker,2013-01-30 14:42:00,
2013-01-30 06:47:00,44.4,38.6,30.32,NE,36,0.0,0.0,80,0.00,,,0.00,0,WeatherTracker,2013-01-30 14:47:00,
2013-01-30 06:52:00,44.1,38.3,30.32,NE,36,0.0,0.0,80,0.00,,,0.00,0,WeatherTracker,2013-01-30 14:52:00,
2013-01-30 06:57:00,43.7,38.3,30.32,NE,36,0.0,0.0,81,0.00,,,0.00,0,WeatherTracker,2013-01-30 14:57:00,
2013-01-30 07:02:00,43.2,37.8,30.32,NE,36,0.0,0.0,81,0.00,,,0.00,0,WeatherTracker,2013-01-30 15:02:00,
2013-01-30 07:07:00,42.9,37.8,30.32,NE,36,0.0,0.0,82,0.00,,,0.00,0,WeatherTracker,2013-01-30 15:07:00,
2013-01-30 07:12:00,42.6,37.5,30.32,NE,36,0.0,0.0,82,0.00,,,0.00,5,WeatherTracker,2013-01-30 15:12:00,
2013-01-30 07:17:00,42.3,37.5,30.32,NE,36,0.0,0.0,83,0.00,,,0.00,7,WeatherTracker,2013-01-30 15:17:00,
2013-01-30 07:22:00,42.1,37.6,30.33,NE,36,0.0,0.0,84,0.00,,,0.00,11,WeatherTracker,2013-01-30 15:22:00,
2013-01-30 07:27:00,41.8,37.3,30.33,NE,36,0.0,0.0,84,0.00,,,0.00,14,WeatherTracker,2013-01-30 15:27:00,
2013-01-30 07:32:00,41.7,37.2,30.33,NE,36,0.0,0.0,84,0.00,,,0.00,16,WeatherTracker,2013-01-30 15:32:00,
2013-01-30 07:37:00,41.7,37.5,30.33,NE,36,0.0,0.0,85,0.00,,,0.00,19,WeatherTracker,2013-01-30 15:37:00,
2013-01-30 07:42:00,41.7,37.5,30.33,NE,36,0.0,0.0,85,0.00,,,0.00,21,WeatherTracker,2013-01-30 15:42:00,
2013-01-30 07:47:00,41.8,37.6,30.33,NE,36,0.0,0.0,85,0.00,,,0.00,23,WeatherTracker,2013-01-30 15:47:00,
2013-01-30 07:52:00,41.8,37.9,30.34,NE,36,0.0,0.0,86,0.00,,,0.00,30,WeatherTracker,2013-01-30 15:52:00,
2013-01-30 07:57:00,42.1,38.2,30.34,NE,36,0.0,0.0,86,0.00,,,0.00,58,WeatherTracker,2013-01-30 15:57:00,
2013-01-30 08:03:00,43.0,39.1,30.34,NE,36,0.0,0.0,86,0.00,,,0.00,97,WeatherTracker,2013-01-30 16:03:00,
2013-01-30 08:08:00,44.4,39.9,30.34,NE,36,0.0,0.0,84,0.00,,,0.00,120,WeatherTracker,2013-01-30 16:08:00,
2013-01-30 08:13:00,45.8,40.6,30.34,NE,36,0.0,0.0,82,0.00,,,0.00,127,WeatherTracker,2013-01-30 16:13:00,
2013-01-30 08:18:00,46.7,40.9,30.34,NE,36,0.0,0.0,80,0.00,,,0.00,151,WeatherTracker,2013-01-30 16:18:00,
2013-01-30 08:23:00,47.5,41.0,30.34,NE,36,0.0,0.0,78,0.00,,,0.00,151,WeatherTracker,2013-01-30 16:23:00,
2013-01-30 08:28:00,47.8,40.6,30.35,NE,36,0.0,0.0,76,0.00,,,0.00,174,WeatherTracker,2013-01-30 16:28:00,
2013-01-30 08:33:00,48.2,40.7,30.35,NE,36,0.0,0.0,75,0.00,,,0.00,195,WeatherTracker,2013-01-30 16:33:00,
2013-01-30 08:38:00,48.3,40.4,30.35,ENE,67,0.0,0.0,74,0.00,,,0.00,213,WeatherTracker,2013-01-30 16:38:00,
2013-01-30 08:43:00,48.3,40.4,30.35,East,88,0.0,0.0,74,0.00,,,0.00,229,WeatherTracker,2013-01-30 16:43:00,
2013-01-30 08:48:00,48.3,40.4,30.36,East,89,0.0,0.0,74,0.00,,,0.00,243,WeatherTracker,2013-01-30 16:48:00,
2013-01-30 08:53:00,48.3,40.4,30.35,East,89,0.0,0.0,74,0.00,,,0.00,257,WeatherTracker,2013-01-30 16:53:00,
2013-01-30 08:58:00,48.5,40.6,30.35,East,89,0.0,0.0,74,0.00,,,0.00,274,WeatherTracker,2013-01-30 16:58:00,
2013-01-30 09:03:00,49.1,41.5,30.36,East,89,0.0,0.0,75,0.00,,,0.00,290,WeatherTracker,2013-01-30 17:03:00,
2013-01-30 09:08:00,49.5,41.6,30.36,East,89,0.0,0.0,74,0.00,,,0.00,306,WeatherTracker,2013-01-30 17:08:00,
2013-01-30 09:13:00,49.9,41.9,30.36,East,89,0.0,0.0,74,0.00,,,0.00,322,WeatherTracker,2013-01-30 17:13:00,
2013-01-30 09:18:00,50.4,42.1,30.36,East,88,0.0,0.0,73,0.00,,,0.00,336,WeatherTracker,2013-01-30 17:18:00,
2013-01-30 09:23:00,50.8,42.5,30.36,East,88,0.0,0.0,73,0.00,,,0.00,350,WeatherTracker,2013-01-30 17:23:00,
2013-01-30 09:28:00,51.2,42.5,30.36,East,90,0.0,0.0,72,0.00,,,0.00,366,WeatherTracker,2013-01-30 17:28:00,
2013-01-30 09:33:00,51.6,42.9,30.36,East,94,0.0,0.0,72,0.00,,,0.00,378,WeatherTracker,2013-01-30 17:33:00,
2013-01-30 09:38:00,52.2,43.1,30.36,East,94,0.0,0.0,71,0.00,,,0.00,390,WeatherTracker,2013-01-30 17:38:00,
2013-01-30 09:43:00,52.8,43.3,30.36,East,95,0.0,0.0,70,0.00,,,0.00,404,WeatherTracker,2013-01-30 17:43:00,
2013-01-30 09:48:00,53.1,43.6,30.36,East,95,0.0,0.0,70,0.00,,,0.00,417,WeatherTracker,2013-01-30 17:48:00,
2013-01-30 09:53:00,53.6,43.7,30.36,East,95,0.0,0.0,69,0.00,,,0.00,418,WeatherTracker,2013-01-30 17:53:00,
2013-01-30 09:59:00,54.2,43.9,30.36,East,95,0.0,0.0,68,0.00,,,0.00,441,WeatherTracker,2013-01-30 17:59:00,
2013-01-30 10:04:00,54.5,43.8,30.36,East,95,0.0,0.0,67,0.00,,,0.00,454,WeatherTracker,2013-01-30 18:04:00,
2013-01-30 10:09:00,54.6,43.9,30.36,East,95,0.0,0.0,67,0.00,,,0.00,464,WeatherTracker,2013-01-30 18:09:00,
2013-01-30 10:14:00,54.8,44.4,30.36,East,96,0.0,0.0,68,0.00,,,0.00,471,WeatherTracker,2013-01-30 18:14:00,
2013-01-30 10:19:00,55.5,44.3,30.36,East,96,0.0,0.0,66,0.00,,,0.00,483,WeatherTracker,2013-01-30 18:19:00,
2013-01-30 10:24:00,56.0,44.4,30.36,East,94,0.0,0.0,65,0.00,,,0.00,483,WeatherTracker,2013-01-30 18:24:00,
2013-01-30 10:29:00,56.3,44.3,30.36,East,93,0.0,0.0,64,0.00,,,0.00,501,WeatherTracker,2013-01-30 18:29:00,
2013-01-30 10:34:00,56.3,43.9,30.36,East,94,0.0,0.0,63,0.00,,,0.00,501,WeatherTracker,2013-01-30 18:34:00,
2013-01-30 10:39:00,56.7,44.2,30.36,East,92,0.0,0.0,63,0.00,,,0.00,517,WeatherTracker,2013-01-30 18:39:00,
2013-01-30 10:44:00,56.8,44.3,30.36,East,92,0.0,0.0,63,0.00,,,0.00,510,WeatherTracker,2013-01-30 18:44:00,
2013-01-30 10:49:00,57.0,44.5,30.36,ENE,72,0.0,0.0,63,0.00,,,0.00,504,WeatherTracker,2013-01-30 18:49:00,
2013-01-30 10:54:00,56.9,44.0,30.36,ENE,59,0.0,0.0,62,0.00,,,0.00,533,WeatherTracker,2013-01-30 18:54:00,
2013-01-30 10:59:00,57.0,44.5,30.36,ENE,67,0.0,0.0,63,0.00,,,0.00,541,WeatherTracker,2013-01-30 18:59:00,
2013-01-30 11:04:00,57.2,44.7,30.36,ENE,70,0.0,0.0,63,0.00,,,0.00,555,WeatherTracker,2013-01-30 19:04:00,
2013-01-30 11:09:00,57.0,44.1,30.36,NE,50,0.0,2.0,62,0.00,,,0.00,559,WeatherTracker,2013-01-30 19:09:00,
2013-01-30 11:14:00,57.0,43.7,30.36,ENE,74,0.0,2.0,61,0.00,,,0.00,564,WeatherTracker,2013-01-30 19:14:00,
2013-01-30 11:19:00,57.2,44.3,30.36,ENE,77,0.0,2.0,62,0.00,,,0.00,570,WeatherTracker,2013-01-30 19:19:00,
2013-01-30 11:24:00,57.5,44.6,30.35,East,96,0.0,1.0,62,0.00,,,0.00,580,WeatherTracker,2013-01-30 19:24:00,
2013-01-30 11:30:00,58.1,44.7,30.35,East,101,0.0,2.0,61,0.00,,,0.00,585,WeatherTracker,2013-01-30 19:30:00,
2013-01-30 11:35:00,58.5,45.1,30.35,East,90,0.0,2.0,61,0.00,,,0.00,589,WeatherTracker,2013-01-30 19:35:00,
2013-01-30 11:40:00,58.7,45.3,30.34,East,94,0.0,2.0,61,0.00,,,0.00,587,WeatherTracker,2013-01-30 19:40:00,
2013-01-30 11:45:00,58.6,44.8,30.34,East,93,0.0,2.0,60,0.00,,,0.00,592,WeatherTracker,2013-01-30 19:45:00,
2013-01-30 11:50:00,58.3,44.5,30.34,East,80,0.0,2.0,60,0.00,,,0.00,594,WeatherTracker,2013-01-30 19:50:00,
2013-01-30 11:55:00,58.6,44.8,30.33,East,96,0.0,2.0,60,0.00,,,0.00,598,WeatherTracker,2013-01-30 19:55:00,
2013-01-30 12:00:00,59.1,45.2,30.33,East,91,1.0,2.0,60,0.00,,,0.00,603,WeatherTracker,2013-01-30 20:00:00,
2013-01-30 12:05:00,59.1,44.8,30.33,East,94,0.0,2.0,59,0.00,,,0.00,603,WeatherTracker,2013-01-30 20:05:00,
2013-01-30 12:10:00,59.6,45.3,30.33,East,98,0.0,1.0,59,0.00,,,0.00,603,WeatherTracker,2013-01-30 20:10:00,
2013-01-30 12:15:00,59.9,44.6,30.33,ESE,102,0.0,2.0,57,0.00,,,0.00,605,WeatherTracker,2013-01-30 20:15:00,
2013-01-30 12:20:00,60.2,44.9,30.32,ESE,102,0.0,2.0,57,0.00,,,0.00,599,WeatherTracker,2013-01-30 20:20:00,
2013-01-30 12:25:00,60.7,44.9,30.32,East,90,0.0,1.0,56,0.00,,,0.00,605,WeatherTracker,2013-01-30 20:25:00,
2013-01-30 12:30:00,60.5,45.2,30.32,East,96,0.0,1.0,57,0.00,,,0.00,606,WeatherTracker,2013-01-30 20:30:00,
2013-01-30 12:35:00,60.4,44.6,30.32,ENE,64,0.0,1.0,56,0.00,,,0.00,599,WeatherTracker,2013-01-30 20:35:00,
2013-01-30 12:41:00,60.6,44.8,30.32,ENE,70,0.0,1.0,56,0.00,,,0.00,603,WeatherTracker,2013-01-30 20:41:00,
2013-01-30 12:46:00,60.9,45.1,30.31,East,92,0.0,2.0,56,0.00,,,0.00,606,WeatherTracker,2013-01-30 20:46:00,
2013-01-30 12:51:00,61.4,45.1,30.31,East,96,0.0,2.0,55,0.00,,,0.00,603,WeatherTracker,2013-01-30 20:51:00,
2013-01-30 12:56:00,62.2,45.8,30.31,ESE,119,1.0,2.0,55,0.00,,,0.00,598,WeatherTracker,2013-01-30 20:56:00,
2013-01-30 13:01:00,62.6,45.2,30.31,ESE,120,1.0,2.0,53,0.00,,,0.00,598,WeatherTracker,2013-01-30 21:01:00,
2013-01-30 13:06:00,63.1,45.7,30.30,ESE,120,0.0,1.0,53,0.00,,,0.00,598,WeatherTracker,2013-01-30 21:06:00,
2013-01-30 13:11:00,63.2,44.8,30.30,ENE,76,0.0,1.0,51,0.00,,,0.00,592,WeatherTracker,2013-01-30 21:11:00,
2013-01-30 13:16:00,63.5,45.0,30.30,ENE,75,0.0,1.0,51,0.00,,,0.00,578,WeatherTracker,2013-01-30 21:16:00,
2013-01-30 13:21:00,63.7,44.2,30.30,ENE,76,0.0,1.0,49,0.00,,,0.00,582,WeatherTracker,2013-01-30 21:21:00,
2013-01-30 13:26:00,64.2,43.5,30.29,NNE,13,0.0,2.0,47,0.00,,,0.00,578,WeatherTracker,2013-01-30 21:26:00,
2013-01-30 13:31:00,64.7,45.1,30.29,ENE,59,0.0,2.0,49,0.00,,,0.00,571,WeatherTracker,2013-01-30 21:31:00,
2013-01-30 13:36:00,64.8,45.2,30.29,NE,55,0.0,2.0,49,0.00,,,0.00,561,WeatherTracker,2013-01-30 21:36:00,
2013-01-30 13:41:00,65.1,44.4,30.29,North,360,0.0,1.0,47,0.00,,,0.00,559,WeatherTracker,2013-01-30 21:41:00,
2013-01-30 13:46:00,65.5,43.6,30.28,NNW,344,1.0,1.0,45,0.00,,,0.00,552,WeatherTracker,2013-01-30 21:46:00,
2013-01-30 13:51:00,65.7,43.8,30.28,NW,306,0.0,3.0,45,0.00,,,0.00,545,WeatherTracker,2013-01-30 21:51:00,
2013-01-30 13:56:00,65.5,43.6,30.28,NNW,346,0.0,3.0,45,0.00,,,0.00,536,WeatherTracker,2013-01-30 21:56:00,
2013-01-30 14:01:00,65.9,45.1,30.28,North,355,0.0,2.0,47,0.00,,,0.00,527,WeatherTracker,2013-01-30 22:01:00,
2013-01-30 14:06:00,66.1,43.5,30.28,WNW,299,1.0,1.0,44,0.00,,,0.00,522,WeatherTracker,2013-01-30 22:06:00,
2013-01-30 14:11:00,66.5,43.9,30.28,NW,306,0.0,1.0,44,0.00,,,0.00,512,WeatherTracker,2013-01-30 22:11:00,
2013-01-30 14:16:00,66.8,43.6,30.28,NNW,345,0.0,1.0,43,0.00,,,0.00,503,WeatherTracker,2013-01-30 22:16:00,
2013-01-30 14:21:00,67.1,43.8,30.28,NNW,344,0.0,2.0,43,0.00,,,0.00,492,WeatherTracker,2013-01-30 22:21:00,
2013-01-30 14:26:00,66.9,43.7,30.28,NNE,26,1.0,2.0,43,0.00,,,0.00,483,WeatherTracker,2013-01-30 22:26:00,
2013-01-30 14:31:00,66.7,45.3,30.28,ENE,67,0.0,1.0,46,0.00,,,0.00,471,WeatherTracker,2013-01-30 22:31:00,
2013-01-30 14:36:00,66.7,44.1,30.27,NNE,15,0.0,1.0,44,0.00,,,0.00,459,WeatherTracker,2013-01-30 22:36:00,
2013-01-30 14:41:00,66.9,43.7,30.27,NNE,15,0.0,1.0,43,0.00,,,0.00,448,WeatherTracker,2013-01-30 22:41:00,
2013-01-30 14:46:00,67.1,45.0,30.27,NNE,33,0.0,1.0,45,0.00,,,0.00,436,WeatherTracker,2013-01-30 22:46:00,
2013-01-30 14:52:00,67.1,45.0,30.28,NNW,336,0.0,0.0,45,0.00,,,0.00,424,WeatherTracker,2013-01-30 22:52:00,
2013-01-30 14:57:00,66.9,43.1,30.27,North,5,0.0,1.0,42,0.00,,,0.00,411,WeatherTracker,2013-01-30 22:57:00,
2013-01-30 15:02:00,66.3,44.3,30.28,East,89,0.0,1.0,45,0.00,,,0.00,399,WeatherTracker,2013-01-30 23:02:00,
2013-01-30 15:07:00,65.6,44.3,30.27,ENE,70,1.0,1.0,46,0.00,,,0.00,385,WeatherTracker,2013-01-30 23:07:00,
2013-01-30 15:12:00,65.2,44.5,30.27,ENE,70,0.0,1.0,47,0.00,,,0.00,371,WeatherTracker,2013-01-30 23:12:00,
2013-01-30 15:17:00,65.0,44.3,30.27,East,96,0.0,1.0,47,0.00,,,0.00,355,WeatherTracker,2013-01-30 23:17:00,
2013-01-30 15:22:00,64.9,44.2,30.27,East,94,0.0,1.0,47,0.00,,,0.00,341,WeatherTracker,2013-01-30 23:22:00,
2013-01-30 15:27:00,65.0,44.3,30.27,ESE,105,0.0,1.0,47,0.00,,,0.00,329,WeatherTracker,2013-01-30 23:27:00,
2013-01-30 15:32:00,64.9,43.6,30.27,ENE,71,0.0,1.0,46,0.00,,,0.00,315,WeatherTracker,2013-01-30 23:32:00,
2013-01-30 15:37:00,64.6,43.3,30.27,NE,53,0.0,1.0,46,0.00,,,0.00,299,WeatherTracker,2013-01-30 23:37:00,
2013-01-30 15:42:00,64.4,43.2,30.27,ENE,78,0.0,1.0,46,0.00,,,0.00,278,WeatherTracker,2013-01-30 23:42:00,
2013-01-30 15:47:00,64.4,43.2,30.27,East,94,0.0,1.0,46,0.00,,,0.00,260,WeatherTracker,2013-01-30 23:47:00,
2013-01-30 15:52:00,64.4,42.6,30.27,East,89,0.0,1.0,45,0.00,,,0.00,241,WeatherTracker,2013-01-30 23:52:00,
2013-01-30 15:57:00,63.9,42.7,30.27,ENE,77,0.0,1.0,46,0.00,,,0.00,69,WeatherTracker,2013-01-30 23:57:00,
2013-01-30 16:02:00,63.3,42.2,30.27,NE,50,0.0,1.0,46,0.00,,,0.00,37,WeatherTracker,2013-01-31 00:02:00,
2013-01-30 16:07:00,62.6,42.1,30.27,ENE,59,0.0,1.0,47,0.00,,,0.00,40,WeatherTracker,2013-01-31 00:07:00,
2013-01-30 16:13:00,62.0,42.1,30.27,ENE,66,0.0,1.0,48,0.00,,,0.00,56,WeatherTracker,2013-01-31 00:13:00,
2013-01-30 16:18:00,61.5,41.6,30.26,ENE,63,0.0,1.0,48,0.00,,,0.00,62,WeatherTracker,2013-01-31 00:18:00,
2013-01-30 16:23:00,61.3,42.5,30.26,ENE,64,0.0,1.0,50,0.00,,,0.00,49,WeatherTracker,2013-01-31 00:23:00,
2013-01-30 16:28:00,61.0,42.7,30.26,ESE,120,0.0,1.0,51,0.00,,,0.00,44,WeatherTracker,2013-01-31 00:28:00,
2013-01-30 16:33:00,60.6,42.9,30.27,ESE,122,0.0,1.0,52,0.00,,,0.00,30,WeatherTracker,2013-01-31 00:33:00,
2013-01-30 16:38:00,60.2,42.0,30.26,ESE,121,0.0,1.0,51,0.00,,,0.00,26,WeatherTracker,2013-01-31 00:38:00,
2013-01-30 16:43:00,59.8,41.6,30.26,ESE,121,0.0,1.0,51,0.00,,,0.00,25,WeatherTracker,2013-01-31 00:43:00,
2013-01-30 16:48:00,59.4,41.8,30.26,ESE,119,0.0,0.0,52,0.00,,,0.00,23,WeatherTracker,2013-01-31 00:48:00,
2013-01-30 16:53:00,59.1,42.0,30.26,ESE,119,0.0,0.0,53,0.00,,,0.00,21,WeatherTracker,2013-01-31 00:53:00,
2013-01-30 16:58:00,59.1,42.5,30.27,ESE,119,0.0,0.0,54,0.00,,,0.00,19,WeatherTracker,2013-01-31 00:58:00,
2013-01-30 17:03:00,58.8,42.7,30.27,ESE,119,0.0,0.0,55,0.00,,,0.00,16,WeatherTracker,2013-01-31 01:03:00,
2013-01-30 17:08:00,58.4,42.8,30.27,ESE,119,0.0,0.0,56,0.00,,,0.00,14,WeatherTracker,2013-01-31 01:08:00,
2013-01-30 17:13:00,58.1,42.9,30.27,ESE,119,0.0,0.0,57,0.00,,,0.00,12,WeatherTracker,2013-01-31 01:13:00,
2013-01-30 17:18:00,57.9,43.2,30.27,ESE,119,0.0,0.0,58,0.00,,,0.00,11,WeatherTracker,2013-01-31 01:18:00,
2013-01-30 17:23:00,57.6,43.4,30.27,ESE,119,0.0,0.0,59,0.00,,,0.00,7,WeatherTracker,2013-01-31 01:23:00,
2013-01-30 17:28:00,57.3,43.1,30.27,ESE,119,0.0,0.0,59,0.00,,,0.00,5,WeatherTracker,2013-01-31 01:28:00,
2013-01-30 17:33:00,56.9,43.2,30.27,ESE,119,0.0,0.0,60,0.00,,,0.00,0,WeatherTracker,2013-01-31 01:33:00,
2013-01-30 17:38:00,56.5,43.2,30.27,ESE,119,0.0,0.0,61,0.00,,,0.00,0,WeatherTracker,2013-01-31 01:38:00,
2013-01-30 17:43:00,56.2,43.4,30.27,ESE,119,0.0,0.0,62,0.00,,,0.00,0,WeatherTracker,2013-01-31 01:43:00,
2013-01-30 17:48:00,55.9,43.1,30.27,ESE,119,0.0,0.0,62,0.00,,,0.00,0,WeatherTracker,2013-01-31 01:48:00,
2013-01-30 17:53:00,55.6,43.2,30.27,ESE,119,0.0,0.0,63,0.00,,,0.00,0,WeatherTracker,2013-01-31 01:53:00,
2013-01-30 17:58:00,55.3,42.9,30.27,ESE,119,0.0,0.0,63,0.00,,,0.00,0,WeatherTracker,2013-01-31 01:58:00,
2013-01-30 18:03:00,55.0,43.0,30.27,ESE,118,0.0,0.0,64,0.00,,,0.00,0,WeatherTracker,2013-01-31 02:03:00,
2013-01-30 18:08:00,54.6,43.1,30.27,ESE,118,0.0,0.0,65,0.00,,,0.00,0,WeatherTracker,2013-01-31 02:08:00,
2013-01-30 18:13:00,54.1,43.0,30.27,ESE,118,0.0,0.0,66,0.00,,,0.00,0,WeatherTracker,2013-01-31 02:13:00,
2013-01-30 18:18:00,53.6,42.9,30.28,ESE,118,0.0,0.0,67,0.00,,,0.00,0,WeatherTracker,2013-01-31 02:18:00,
2013-01-30 18:23:00,53.1,42.4,30.28,ESE,118,0.0,0.0,67,0.00,,,0.00,0,WeatherTracker,2013-01-31 02:23:00,
2013-01-30 18:28:00,52.7,42.4,30.27,ESE,118,0.0,0.0,68,0.00,,,0.00,0,WeatherTracker,2013-01-31 02:28:00,
2013-01-30 18:33:00,52.3,42.4,30.28,ESE,118,0.0,0.0,69,0.00,,,0.00,0,WeatherTracker,2013-01-31 02:33:00,
2013-01-30 18:38:00,52.0,42.5,30.28,ESE,118,0.0,0.0,70,0.00,,,0.00,0,WeatherTracker,2013-01-31 02:38:00,
2013-01-30 18:44:00,51.6,42.1,30.28,ESE,118,0.0,0.0,70,0.00,,,0.00,0,WeatherTracker,2013-01-31 02:44:00,
2013-01-30 18:49:00,51.4,42.3,30.28,ESE,118,0.0,0.0,71,0.00,,,0.00,0,WeatherTracker,2013-01-31 02:49:00,
2013-01-30 18:54:00,51.1,42.4,30.28,ESE,118,0.0,0.0,72,0.00,,,0.00,0,WeatherTracker,2013-01-31 02:54:00,
2013-01-30 18:59:00,50.8,42.1,30.28,ESE,118,0.0,0.0,72,0.00,,,0.00,0,WeatherTracker,2013-01-31 02:59:00,
2013-01-30 19:04:00,50.5,42.2,30.28,ESE,118,0.0,0.0,73,0.00,,,0.00,0,WeatherTracker,2013-01-31 03:04:00,
2013-01-30 19:09:00,50.1,42.1,30.27,ESE,118,0.0,0.0,74,0.00,,,0.00,0,WeatherTracker,2013-01-31 03:09:00,
2013-01-30 19:14:00,49.7,42.1,30.27,ESE,118,0.0,0.0,75,0.00,,,0.00,0,WeatherTracker,2013-01-31 03:14:00,
2013-01-30 19:19:00,49.4,42.2,30.27,ESE,118,0.0,0.0,76,0.00,,,0.00,0,WeatherTracker,2013-01-31 03:19:00,
2013-01-30 19:24:00,49.3,42.4,30.27,ESE,118,0.0,0.0,77,0.00,,,0.00,0,WeatherTracker,2013-01-31 03:24:00,
2013-01-30 19:29:00,49.3,42.1,30.27,ESE,118,0.0,0.0,76,0.00,,,0.00,0,WeatherTracker,2013-01-31 03:29:00,
2013-01-30 19:34:00,49.3,42.1,30.27,ESE,118,0.0,0.0,76,0.00,,,0.00,0,WeatherTracker,2013-01-31 03:34:00,
2013-01-30 19:39:00,49.3,42.1,30.27,ESE,118,0.0,0.0,76,0.00,,,0.00,0,WeatherTracker,2013-01-31 03:39:00,
2013-01-30 19:44:00,49.1,41.9,30.27,ESE,118,0.0,0.0,76,0.00,,,0.00,0,WeatherTracker,2013-01-31 03:44:00,
2013-01-30 19:49:00,48.8,41.9,30.27,ESE,118,0.0,0.0,77,0.00,,,0.00,0,WeatherTracker,2013-01-31 03:49:00,
2013-01-30 19:54:00,48.5,41.6,30.27,ESE,118,0.0,0.0,77,0.00,,,0.00,0,WeatherTracker,2013-01-31 03:54:00,
2013-01-30 19:59:00,48.2,41.7,30.27,ESE,118,0.0,0.0,78,0.00,,,0.00,0,WeatherTracker,2013-01-31 03:59:00,
2013-01-30 20:04:00,48.0,41.5,30.27,ESE,118,0.0,0.0,78,0.00,,,0.00,0,WeatherTracker,2013-01-31 04:04:00,
2013-01-30 20:09:00,47.7,41.5,30.27,ESE,118,0.0,0.0,79,0.00,,,0.00,0,WeatherTracker,2013-01-31 04:09:00,
2013-01-30 20:14:00,47.5,41.3,30.27,ESE,118,0.0,0.0,79,0.00,,,0.00,0,WeatherTracker,2013-01-31 04:14:00,
2013-01-30 20:19:00,47.4,41.2,30.27,ESE,118,0.0,0.0,79,0.00,,,0.00,0,WeatherTracker,2013-01-31 04:19:00,
2013-01-30 20:24:00,47.3,41.4,30.27,ESE,118,0.0,0.0,80,0.00,,,0.00,0,WeatherTracker,2013-01-31 04:24:00,
2013-01-30 20:30:00,47.2,41.0,30.27,ESE,118,0.0,0.0,79,0.00,,,0.00,0,WeatherTracker,2013-01-31 04:30:00,
2013-01-30 20:35:00,47.0,40.8,30.27,ESE,118,0.0,0.0,79,0.00,,,0.00,0,WeatherTracker,2013-01-31 04:35:00,
2013-01-30 20:40:00,46.7,40.5,30.27,ESE,118,0.0,0.0,79,0.00,,,0.00,0,WeatherTracker,2013-01-31 04:40:00,
2013-01-30 20:45:00,46.4,40.6,30.28,ESE,118,0.0,0.0,80,0.00,,,0.00,0,WeatherTracker,2013-01-31 04:45:00,
2013-01-30 20:50:00,46.2,40.7,30.28,ESE,118,0.0,0.0,81,0.00,,,0.00,0,WeatherTracker,2013-01-31 04:50:00,
2013-01-30 20:55:00,46.0,40.5,30.28,ESE,118,0.0,0.0,81,0.00,,,0.00,0,WeatherTracker,2013-01-31 04:55:00,
2013-01-30 21:00:00,45.9,40.4,30.28,ESE,118,0.0,0.0,81,0.00,,,0.00,0,WeatherTracker,2013-01-31 05:00:00,
2013-01-30 21:01:00,45.8,40.3,30.28,ESE,118,0.0,0.0,81,0.00,,,0.00,0,WeatherTracker,2013-01-31 05:01:00,
2013-01-30 21:06:00,45.7,40.5,30.28,ESE,118,0.0,0.0,82,0.00,,,0.00,0,WeatherTracker,2013-01-31 05:06:00,
2013-01-30 21:11:00,45.5,40.3,30.28,ESE,118,0.0,0.0,82,0.00,,,0.00,0,WeatherTracker,2013-01-31 05:11:00,
2013-01-30 21:16:00,45.3,40.1,30.28,ESE,118,0.0,0.0,82,0.00,,,0.00,0,WeatherTracker,2013-01-31 05:16:00,
2013-01-30 21:21:00,45.1,40.3,30.28,ESE,118,0.0,0.0,83,0.00,,,0.00,0,WeatherTracker,2013-01-31 05:21:00,
2013-01-30 21:26:00,45.1,40.3,30.28,ESE,118,0.0,0.0,83,0.00,,,0.00,0,WeatherTracker,2013-01-31 05:26:00,
2013-01-30 21:32:00,45.0,40.5,30.28,ESE,118,0.0,0.0,84,0.00,,,0.00,0,WeatherTracker,2013-01-31 05:32:00,
2013-01-30 21:37:00,44.8,40.0,30.28,ESE,118,0.0,0.0,83,0.00,,,0.00,0,WeatherTracker,2013-01-31 05:37:00,
2013-01-30 21:42:00,44.6,40.1,30.28,ESE,118,0.0,0.0,84,0.00,,,0.00,0,WeatherTracker,2013-01-31 05:42:00,
2013-01-30 21:47:00,44.5,40.0,30.28,ESE,118,0.0,0.0,84,0.00,,,0.00,0,WeatherTracker,2013-01-31 05:47:00,
2013-01-30 21:52:00,44.4,39.9,30.28,ESE,118,0.0,0.0,84,0.00,,,0.00,0,WeatherTracker,2013-01-31 05:52:00,
2013-01-30 21:57:00,44.2,39.7,30.28,ESE,118,0.0,0.0,84,0.00,,,0.00,0,WeatherTracker,2013-01-31 05:57:00,
2013-01-30 22:02:00,44.1,39.9,30.28,ESE,118,0.0,0.0,85,0.00,,,0.00,0,WeatherTracker,2013-01-31 06:02:00,
2013-01-30 22:07:00,44.0,39.8,30.29,ESE,118,0.0,0.0,85,0.00,,,0.00,0,WeatherTracker,2013-01-31 06:07:00,
2013-01-30 22:12:00,43.9,39.7,30.29,ESE,118,0.0,0.0,85,0.00,,,0.00,0,WeatherTracker,2013-01-31 06:12:00,
2013-01-30 22:17:00,43.8,39.6,30.28,ESE,118,0.0,0.0,85,0.00,,,0.00,0,WeatherTracker,2013-01-31 06:17:00,
2013-01-30 22:22:00,43.9,39.7,30.28,ESE,118,0.0,0.0,85,0.00,,,0.00,0,WeatherTracker,2013-01-31 06:22:00,
2013-01-30 22:27:00,43.9,39.7,30.28,ESE,118,0.0,0.0,85,0.00,,,0.00,0,WeatherTracker,2013-01-31 06:27:00,
2013-01-30 22:32:00,43.8,39.6,30.28,ESE,118,0.0,0.0,85,0.00,,,0.00,0,WeatherTracker,2013-01-31 06:32:00,
2013-01-30 22:37:00,43.7,39.5,30.29,ESE,118,0.0,0.0,85,0.00,,,0.00,0,WeatherTracker,2013-01-31 06:37:00,
2013-01-30 22:42:00,43.7,39.5,30.29,ESE,118,0.0,0.0,85,0.00,,,0.00,0,WeatherTracker,2013-01-31 06:42:00,
2013-01-30 22:47:00,43.6,39.4,30.29,ESE,118,0.0,0.0,85,0.00,,,0.00,0,WeatherTracker,2013-01-31 06:47:00,
2013-01-30 22:52:00,43.4,39.2,30.29,ESE,118,0.0,0.0,85,0.00,,,0.00,0,WeatherTracker,2013-01-31 06:52:00,
2013-01-30 22:57:00,43.3,39.1,30.29,ESE,118,0.0,0.0,85,0.00,,,0.00,0,WeatherTracker,2013-01-31 06:57:00,
2013-01-30 23:02:00,43.1,39.2,30.29,ESE,118,0.0,0.0,86,0.00,,,0.00,0,WeatherTracker,2013-01-31 07:02:00,
2013-01-30 23:07:00,43.0,39.1,30.29,ESE,118,0.0,0.0,86,0.00,,,0.00,0,WeatherTracker,2013-01-31 07:07:00,
2013-01-30 23:12:00,42.9,39.0,30.29,ESE,118,0.0,0.0,86,0.00,,,0.00,0,WeatherTracker,2013-01-31 07:12:00,
2013-01-30 23:17:00,42.8,38.9,30.29,ESE,118,0.0,0.0,86,0.00,,,0.00,0,WeatherTracker,2013-01-31 07:17:00,
2013-01-30 23:23:00,42.7,38.8,30.29,ESE,118,0.0,0.0,86,0.00,,,0.00,0,WeatherTracker,2013-01-31 07:23:00,
2013-01-30 23:28:00,42.6,38.7,30.29,ESE,118,0.0,0.0,86,0.00,,,0.00,0,WeatherTracker,2013-01-31 07:28:00,
2013-01-30 23:33:00,42.5,38.6,30.29,ESE,118,0.0,0.0,86,0.00,,,0.00,0,WeatherTracker,2013-01-31 07:33:00,
2013-01-30 23:38:00,42.5,38.6,30.30,ESE,118,0.0,0.0,86,0.00,,,0.00,0,WeatherTracker,2013-01-31 07:38:00,
2013-01-30 23:43:00,42.5,38.9,30.30,ESE,118,0.0,0.0,87,0.00,,,0.00,0,WeatherTracker,2013-01-31 07:43:00,
2013-01-30 23:48:00,42.5,38.6,30.30,ESE,118,0.0,0.0,86,0.00,,,0.00,0,WeatherTracker,2013-01-31 07:48:00,
2013-01-30 23:53:00,42.4,38.5,30.30,ESE,118,0.0,0.0,86,0.00,,,0.00,0,WeatherTracker,2013-01-31 07:53:00,
2013-01-30 23:58:00,42.3,38.7,30.30,ESE,118,0.0,0.0,87,0.00,,,0.00,0,WeatherTracker,2013-01-31 07:58:00,